Terminal Aerodrome Forecast
Issued by NWS

Home | Current Version | Previous Version | Text Only | Print | Product List | Glossary On
Versions: 1 2 3 4 5 6 7 8 9 10 11 12 13 14 15
473
FTUS45 KVEF 290520
TAFDAG
TAF
KDAG 290520Z 2906/3006 25017G25KT P6SM SCT100 BKN150
     FM291000 26015G25KT P6SM FEW150=

USA.gov is the U.S. government's official web portal to all federal, state and local government web resources and services.